MST,Max TemperatureF,Mean TemperatureF,Min TemperatureF,Max Dew PointF,MeanDew PointF,Min DewpointF,Max Humidity, Mean Humidity, Min Humidity, Max Sea Level PressureIn, Mean Sea Level PressureIn, Min Sea Level PressureIn, Max VisibilityMiles, Mean VisibilityMiles, Min VisibilityMiles, Max Wind SpeedMPH, Mean Wind SpeedMPH, Max Gust SpeedMPH,PrecipitationIn, CloudCover, Events, WindDirDegrees
2013-3-1,66,50,35,16,8,1,35,19,10,30.32,30.27,30.20,10,10,10,10,5,,0.00,0,,88
2013-3-2,75,58,41,20,14,4,41,21,6,30.31,30.21,30.11,10,10,10,14,5,,0.00,0,,177
2013-3-3,75,62,48,16,7,-11,25,14,4,30.15,30.01,29.88,10,10,10,23,8,31,0.00,0,,261
2013-3-4,66,57,48,32,19,1,37,22,9,30.09,29.92,29.83,10,10,10,32,20,43,0.00,4,Rain,257
2013-3-5,71,58,44,27,22,12,49,29,10,30.12,30.05,29.98,10,10,10,21,8,26,0.00,6,,183
2013-3-6,75,63,51,28,20,7,29,20,10,30.02,29.94,29.88,10,10,10,20,8,33,0.00,3,,229
2013-3-7,69,58,48,25,21,12,40,25,11,29.95,29.91,29.87,10,10,10,22,6,29,0.00,2,,202
2013-3-8,57,47,37,43,34,25,87,59,29,29.97,29.88,29.76,10,9,2,26,14,44,0.14,6,Rain,210
2013-3-9,46,40,35,32,29,26,79,66,52,30.06,29.99,29.91,10,10,3,20,11,25,0.02,4,Rain,274
2013-3-10,55,46,36,34,29,19,82,58,24,30.16,30.10,30.04,10,10,10,17,7,21,0.00,3,,335
2013-3-11,68,54,39,30,22,10,65,36,11,30.16,30.09,30.00,10,10,10,13,5,,0.00,0,,180
2013-3-12,73,58,42,30,21,9,53,28,9,30.09,30.04,29.84,10,10,10,9,4,,0.00,0,,144
2013-3-13,78,63,48,23,17,10,37,20,7,30.17,30.10,30.03,10,10,10,7,2,,0.00,0,,164
2013-3-14,82,66,51,46,15,3,52,18,5,30.16,30.08,30.02,10,10,10,9,3,,0.00,0,,199
2013-3-15,84,68,51,19,10,0,26,12,4,30.07,29.98,29.91,10,10,10,20,7,28,0.00,3,,233
2013-3-16,80,67,54,19,10,2,24,12,6,30.03,29.85,29.76,10,10,10,26,11,36,0.00,0,,255
2013-3-17,73,62,50,19,14,5,23,15,11,29.97,29.85,29.80,10,10,10,26,13,37,0.00,0,,254
2013-3-18,73,60,46,28,19,10,46,23,9,29.98,29.94,29.89,10,10,10,16,7,25,0.00,3,,258
2013-3-19,73,62,50,28,23,16,40,25,13,30.04,29.96,29.91,10,10,10,17,9,25,0.00,6,,267
2013-3-20,77,64,50,27,24,16,40,25,10,30.06,29.96,29.86,10,10,10,18,8,25,0.00,7,,233
2013-3-21,73,62,50,28,20,9,38,22,8,29.88,29.77,29.73,10,10,10,25,11,30,0.00,6,,269
2013-3-22,71,64,54,28,23,14,35,22,11,29.81,29.71,29.66,10,10,10,29,13,37,0.00,3,,234
2013-3-23,69,57,45,26,16,4,44,22,8,29.97,29.88,29.78,10,10,10,23,10,34,0.00,0,,275
2013-3-24,70,58,46,6,1,-2,19,11,7,29.99,29.92,29.82,10,10,10,16,10,26,0.00,0,,273
2013-3-25,71,58,44,12,8,1,25,15,8,30.00,29.94,29.89,10,10,10,10,6,,0.00,0,,211
2013-3-26,78,63,48,16,11,7,27,14,7,29.98,29.92,29.85,10,10,10,16,9,21,0.00,4,,199
2013-3-27,75,64,53,25,17,5,29,17,7,29.99,29.92,29.88,10,10,10,20,7,26,0.00,6,,225
2013-3-28,75,63,51,28,23,12,38,22,10,30.17,30.00,29.95,10,10,10,15,5,21,0.00,6,,262
2013-3-29,78,64,51,27,20,10,35,19,11,30.19,30.04,29.98,10,10,10,15,6,24,0.00,4,,250
2013-3-30,,,,,,,,,,,,,,,,,,,0.00,,,-1
2013-3-31,62,61,57,21,19,18,25,21,18,29.96,29.95,29.94,10,10,10,12,10,,0.00,3,,257